Location: Unspecified
(50.7693°N, 0.0000°E)
Time: 11:20:26
(UTC+00:00)

Vanguard 2 - Pass Details

Date: 25 June 2019
Orbit: 553 x 2938 km, 32.9° (Epoch: 20 July)

Event Time Altitude Azimuth Distance (km) Brightness Sun altitude
Rises 13:00:17 0° 249° (WSW) 4,317 11.7 60.4°
Reaches altitude 10° 13:06:17 10° 217° (SW) 3,958 11.8 60.0°
Maximum altitude 13:08:48 11° 203° (SSW) 4,112 11.9 59.8°
Drops below altitude 10° 13:11:33 10° 190° (S) 4,447 12.0 59.5°
Sets 13:20:18 0° 162° (SSE) 6,123 12.4 58.8°
